{"data":{"norad_id":67082,"epoch":"2026-09-20T22:12:17.697312Z","epoch_age_seconds":42251,"freshness":"FRESH","line1":"1 67082U 25298H   26263.92520483  .00001517  00000+0  13487-3 0  9990","line2":"2 67082  69.9995 242.1247 0003661 267.6696  92.4043 14.98332981 42468","mean_motion":14.98332981,"eccentricity":0.0003661,"inclination_deg":69.9995,"raan_deg":242.1247,"arg_perigee_deg":267.6696,"mean_anomaly_deg":92.4043,"bstar":0.00013487,"rev_number":4246,"period_min":96.106807916551,"perigee_km":569.50221022061,"apogee_km":574.59113470559,"semimajor_km":6950.1836724631,"source":"CELESTRAK","updated_at":"2026-09-21T09:00:36.098723Z"}}